Weather in Novoomsky

Russia / Omsk Oblast     54°50′28″N   73°18′03″E
temp.,
°C
wind,
m/s
gust,
m/s
humid.,
%
clouds,
%
prec.,
mm/h
press.,
hPa
HPBL,
m
24 may, tue
tue2400:00+17s6145397 0.0 1014388
03:00+15s41159100 0.0 1015243
06:00+16s4115798 0.0 1016245
09:00+21ssw574193 0.0 1016528
12:00+25ssw563196 0.0 10162673
15:00+26sw362927 0.0 10162485
18:00+26ssw24275 0.0 10152430
21:00+22ese33391 0.0 101623
25 may, wed
wed2500:00+19se33420 0.0 101639
03:00+17s35450 0.0 101760
06:00+17s22451 0.0 101826
09:00+23sse23310 0.0 1018404
12:00+27ese46260 0.0 10172275
15:00+28ese552679 0.0 10162520
18:00+28ese6628100 0.0 10152560
21:00+23e51240100 0.0 1015266
26 may, thu
thu2600:00+20ese4114587 0.0 1015223
03:00+18ese495670 0.0 1014169
06:00+17ese4106299 0.0 1014206
09:00+23ese711434 0.0 1012888
12:00+27se810290 0.0 10111755
15:00+30se89230 0.0 10082274
18:00+30se79240 0.0 10072314
21:00+25ese715330 0.1 1006364
27 may, fri
fri2700:00+20s126482 1.9 100715
03:00+16wnw49820 0.6 1008241
06:00+15w58898 0.6 1009427
09:00+16wnw676992 0.0 1011877
12:00+18wnw6759100 0.0 10121190
15:00+20wnw765140 0.0 10131602
18:00+18nnw565125 0.0 10131378
21:00+14nnw47715 0.0 1014231
28 may, sat
sat2800:00+12nw347154 0.0 101548
03:00+10wnw36814 0.0 1015114
06:00+10nw47755 0.0 1016187
09:00+16nnw57500 0.0 1016624
12:00+19nw56376 0.0 10161832
15:00+21nw563518 0.0 10152015
18:00+21nnw563799 0.0 10152146
21:00+16nnw3657100 0.0 1016105